COSMOS 1275 DEB, 12752

Orbit data source: Space-Track

COSMOS 1275 DEB, 12752 is space debris in LEO originally from a launch on Thu, 04 Jun 1981 UTC launched from the Plesetsk Missile And Space Complex (PKMTR). Debris objects in space refer to the collection of defunct objects orbiting the Earth. Examples of debris include non-operational satellites, rocket bodies, and fragments generated from explosions, collisions, or faulty payload assembly.

Loading next visibility...
Identifier
12752, 1981-053CV
Orbit
LEO
Country
Flag of CISCIS
Related business
Manufacturer
Unknown
Mission
Spacecraft
Bus & Motor
Unknown
Mass
Unknown
Launch date (UTC)
1981-06-04 (45 years ago)
Launch vehicle
Unknown
Launch site
Plesetsk Missile And Space Complex (PKMTR)
Object type
Payload
Rocket body
Debris
Shape & HBR
Unknown shape, 0.2 m
Radar Cross Section
Medium (>0.1 m² and <1 m²)

Expand to show TLE details & history
Last TLE update: 22 hours ago

TLE from 22 hours ago
0 COSMOS 1275 DEB
1 12752U 81053CV  26237.34867498  .00000802  00000-0  88086-3 0  9996
2 12752  83.0226 337.1099 0123148 193.4122 231.7245 13.67914859230241
Epoch: 2026-08-25T08:22Z
TLE epoch observation values (Epoch: 2026-08-25T08:22:05.518Z)
Latitude
63.26837°
Longitude
-108.04035°
Altitude
1,074.978 km
Speed
7.292 km/s
True Right ascension
23h 24m 23s
True Declination
63° 08' 09"
Sunlit
Object was in daylight at epoch
Visualization orbit readout
Latitude
Unknown
Longitude
Unknown
Altitude
Unknown
Speed
Unknown
Apparent Right ascension
Unknown
Apparent Declination
Unknown
Sunlit
N/A
Visualization observer readout
Local Sidereal Time
21:33:16
Azimuth
Unknown
Elevation
Unknown
Doppler factor
Unknown
Orbital elements
Apogee altitude
1,095.134 km
Perigee altitude
913.309 km
Semi-major axis
7,382.358 km
Eccentricity
0.01231
Inclination
83.0226°
RAAN
337.1099°
Arg. of periapsis
193.4122°
True anomaly
230.62721°
Mean anomaly
231.7245°
Eccentric anomaly
231.1748°
Mean motion
3.42177 °/min
Orbital period
105.21 mins
BSTAR
0.00088086
Loading maneuver chart data...
Computing Atmospheric mass density...
Loading historical data...
Loading historical data...
Loading historical data...
Loading historical data...
Loading historical data...
Loading historical data...
Loading historical data...

Documentation

Showing up to 5 results
|